SCP
0 0 0 0 0 0 0 0 0 0 0 0 1 1 1 1 1 1 1 1 1 2 2 3 3 2 2 2 2 2 2 2 2 2 1 1 1 1 1 1 1 1 1 1
0 0 0 0 0 0 0 0 0 0 0 0 0 1 1 1 1 1 1 1 1 1 2 3 3 3 2 2 2 2 2 3 2 2 2 1 1 1 1 1 1 1 1 1
0 0 0 0 0 0 0 0 0 0 0 0 0 1 1 1 2 2 2 1 1 1 2 3 3 2 2 2 2 2 2 3 3 2 2 1 1 1 1 1 1 1 1 1
0 0 0 0 0 0 0 0 0 0 0 0 0 1 1 1 2 3 3 2 1 1 2 2 2 2 2 2 2 2 3 3 3 3 3 2 2 1 1 1 1 1 1 1
0 0 0 0 0 0 0 0 0 0 0 0 0 0 1 1 2 3 3 2 2 1 1 1 1 2 2 2 2 2 3 3 3 4 5 5 3 3 3 3 2 1 1 1
0 1 1 1 0 0 0 0 0 0 0 0 0 0 1 1 1 2 3 2 2 1 1 1 1 2 2 2 2 2 3 3 4 5 6 6 5 5 6 5 3 2 1 1
1 1 1 1 1 0 0 0 0 0 0 0 0 0 1 1 1 2 2 2 2 1 1 1 2 2 2 3 3 2 3 3 3 5 6 7 7 7 7 6 3 2 1 1
0 0 1 1 1 0 0 0 0 0 0 0 0 0 1 1 1 2 3 3 2 1 1 1 2 2 3 3 3 3 3 3 3 4 6 7 7 7 7 5 3 2 1 1
0 0 0 0 0 0 0 0 0 0 0 0 0 0 1 1 2 3 3 3 2 2 1 1 2 3 3 3 3 3 3 3 2 3 5 5 6 6 5 4 2 2 1 2
0 0 1 1 0 0 0 0 0 0 0 0 0 0 0 1 2 4 4 3 3 2 2 2 2 2 3 3 3 3 3 3 3 3 3 4 4 4 4 3 2 2 2 2
0 0 1 1 1 0 0 0 0 0 0 0 0 0 1 1 2 4 4 3 3 3 2 3 3 2 3 3 4 4 4 3 3 2 3 3 3 4 4 3 2 2 2 2
0 0 1 1 1 1 0 0 0 0 0 0 0 1 1 2 2 3 4 3 3 3 3 3 3 3 3 4 4 4 4 3 3 3 3 3 4 4 4 3 3 2 2 2
0 0 1 1 1 1 1 0 0 0 0 0 0 1 1 2 2 3 4 4 4 4 4 4 4 4 4 5 5 5 4 3 3 3 3 4 5 5 5 4 3 3 3 2
0 0 0 0 0 0 0 0 0 0 0 0 0 1 1 2 3 4 4 4 4 5 4 4 4 5 5 6 6 5 4 3 3 3 3 4 5 6 6 5 4 4 3 3
0 0 0 0 0 0 0 0 0 0 0 0 0 1 2 2 3 4 5 4 4 5 5 5 6 7 7 7 7 6 5 4 3 3 4 5 5 6 6 6 5 5 4 3
0 0 0 0 0 0 0 0 1 1 1 1 1 1 2 2 3 5 5 5 4 4 6 7 9 9 8 8 8 7 5 4 4 5 5 5 5 6 6 6 6 5 4 3
0 0 0 0 0 0 0 1 1 1 1 1 2 2 2 2 3 5 5 5 4 5 6 8 9 10 9 8 8 7 6 6 6 6 7 6 6 6 5 5 5 5 5 4
0 0 0 0 0 0 1 1 1 1 1 2 2 3 3 3 3 4 5 5 5 5 6 7 8 8 8 8 9 9 8 7 7 7 8 7 6 6 5 5 5 5 5 5
0 0 0 0 0 0 0 1 1 1 1 1 2 3 4 4 4 4 5 5 5 5 5 6 7 7 7 9 10 11 10 9 8 8 9 8 7 7 6 5 5 5 5 5
0 0 0 0 0 0 1 1 1 1 1 1 2 3 3 4 4 4 5 6 6 5 5 5 5 6 7 9 11 12 11 9 7 7 8 8 8 7 6 5 5 5 5 5
0 0 0 0 0 0 1 1 1 1 1 2 2 3 3 4 4 5 6 7 6 5 4 4 4 6 7 9 11 11 10 7 6 7 8 8 8 7 6 5 5 5 5 5
1 1 0 0 0 1 2 2 2 2 3 3 3 3 4 5 6 7 8 8 7 6 4 4 4 6 7 8 9 9 8 7 6 7 8 9 7 6 5 5 5 5 4 4
1 1 1 1 1 2 3 3 3 3 4 4 3 4 4 6 7 8 8 8 7 6 5 5 5 7 9 9 9 9 9 8 7 8 9 8 6 5 4 4 4 4 4 4
2 2 2 2 2 3 3 3 3 4 4 4 4 4 4 6 7 8 9 8 7 6 6 6 6 8 9 9 10 11 11 9 8 8 8 7 5 4 4 5 5 5 4 4
2 2 3 3 3 3 3 3 3 4 4 5 5 4 5 6 8 9 10 9 8 7 7 7 7 8 8 8 10 12 13 10 8 7 6 5 5 5 5 5 5 5 4 4
3 3 4 4 4 4 3 3 3 4 5 6 5 5 6 7 9 11 11 10 8 7 7 7 8 8 8 8 9 12 12 11 8 6 5 5 5 5 6 6 6 5 3 3
Wind_Speed
6 9 8 6 5 3 3 3 3 4 3 4 4 3 5 7 7 7 6 6 5 5 5 5 5 5 5 5 5 4 4 4 3 3 3 2 2 2 2 2 2 3 3 3
9 9 5 3 4 5 6 6 5 5 3 3 3 3 4 6 7 6 7 7 6 6 6 6 6 6 6 6 5 5 5 4 4 3 2 1 1 2 1 2 2 3 3 3
10 3 4 6 8 9 8 6 5 5 5 5 4 6 6 7 7 7 7 7 6 6 6 7 7 7 7 6 6 4 4 4 4 3 2 2 2 2 2 2 2 3 3 4
7 5 6 8 9 9 8 4 4 6 7 3 4 3 5 7 8 8 8 8 7 7 7 7 8 8 7 7 6 5 4 4 4 3 3 2 2 1 1 1 1 2 3 4
7 7 8 9 7 8 2 4 5 6 6 5 4 6 3 6 6 7 8 8 8 8 7 8 8 8 7 7 6 6 5 4 4 3 3 3 2 1 1 1 1 2 2 4
5 4 5 5 4 4 7 7 5 7 8 7 3 6 2 3 3 5 7 8 8 8 8 8 8 7 7 7 6 6 6 5 4 4 3 3 2 2 2 2 2 2 2 2
9 8 6 6 8 9 9 9 7 8 7 4 2 5 2 3 2 3 6 8 9 8 8 9 9 9 8 7 7 6 6 4 4 4 4 3 3 3 3 2 2 2 2 2
12 12 10 8 8 8 11 11 8 6 5 4 6 5 0 4 3 3 6 8 9 9 9 9 9 8 7 7 7 6 5 4 4 4 3 3 3 3 2 1 2 2 2 2
10 9 8 5 5 7 9 10 8 8 7 6 3 3 3 4 5 6 8 9 9 9 9 9 9 8 8 7 6 6 5 4 4 3 3 3 2 2 1 1 2 2 2 2
6 8 9 7 7 2 6 7 7 9 7 8 5 5 3 5 7 8 9 10 10 9 9 9 9 9 8 7 7 5 5 4 3 3 3 2 2 2 1 1 1 1 1 1
8 9 9 10 10 9 8 8 8 7 8 9 6 2 1 3 6 8 9 10 10 10 10 9 9 9 8 8 7 6 5 5 4 3 2 2 2 2 2 1 0 1 1 1
7 8 8 9 5 4 9 9 10 9 7 8 8 1 6 2 3 6 8 9 9 9 9 9 9 9 8 8 7 6 5 5 4 3 3 2 2 2 1 1 1 0 0 0
6 8 9 10 10 8 8 8 10 10 7 8 9 3 6 4 3 4 6 8 9 9 9 9 9 8 8 7 7 6 5 5 5 4 4 3 3 2 2 1 1 1 0 0
6 9 10 11 6 8 9 9 10 12 10 9 9 5 2 3 4 4 5 7 8 9 8 8 8 8 7 7 6 6 5 5 5 4 4 3 2 2 2 2 2 1 1 1
6 9 9 8 5 7 9 10 11 11 10 10 7 6 4 3 4 4 5 6 7 8 8 8 8 7 7 7 6 6 5 5 4 4 3 3 2 2 2 2 2 2 2 2
4 7 8 10 9 9 10 10 11 11 10 10 9 7 3 1 3 4 5 6 6 7 7 7 7 7 7 7 6 5 5 4 4 4 3 3 3 3 2 2 2 2 2 2
5 6 9 11 9 10 13 11 11 11 9 9 9 5 2 2 3 4 5 5 5 6 6 6 6 6 6 6 6 6 5 4 4 3 3 3 3 3 2 3 3 3 2 2
6 7 7 9 9 15 6 3 7 9 7 6 6 5 3 2 3 3 4 4 4 4 5 5 5 5 6 6 6 5 6 5 4 3 3 3 3 3 3 3 2 2 2 2
7 8 8 9 12 12 7 5 7 8 7 4 5 3 2 1 3 5 3 2 3 4 5 5 5 5 5 6 6 6 6 5 5 4 3 3 3 3 3 3 2 2 2 2
7 8 10 9 12 12 6 5 4 7 8 2 2 2 1 2 5 3 2 1 2 4 4 5 5 5 6 5 6 6 5 5 4 4 3 3 3 2 2 2 2 2 2 2
10 9 12 12 11 8 2 3 6 10 2 1 1 2 2 3 3 1 2 2 3 4 5 5 5 5 5 5 6 6 5 5 4 4 4 4 4 3 3 2 2 3 3 3
9 9 10 10 12 7 3 3 4 2 3 2 2 1 1 0 2 3 3 3 4 4 5 5 5 5 5 6 6 5 4 4 4 4 4 4 4 3 3 3 3 3 3 4
7 5 4 5 3 3 2 1 2 3 3 3 2 2 0 1 2 3 3 3 3 3 3 3 5 6 5 5 5 5 4 4 4 5 5 4 4 3 3 3 3 3 2 2
4 3 5 4 3 1 1 1 2 3 3 4 3 2 1 2 2 2 2 2 2 3 3 3 4 6 5 5 4 4 4 4 5 5 5 5 4 4 3 2 2 2 2 2
3 5 6 6 4 4 3 2 3 4 3 3 2 1 2 3 3 3 2 2 2 2 2 3 4 5 5 5 4 5 5 5 5 5 4 4 4 4 4 3 3 2 3 2
4 5 7 5 3 4 3 4 5 4 3 3 2 1 1 2 3 3 2 2 2 2 2 3 4 5 5 5 5 4 4 5 5 5 4 4 4 4 4 5 5 7 5 6
Wind_Direction
202 219 212 204 224 256 212 208 171 126 142 208 213 194 164 174 190 187 185 184 182 180 163 157 159 159 159 165 172 177 181 169 185 190 208 206 213 224 221 223 205 217 230 223
206 214 207 194 196 207 209 207 170 144 151 226 210 206 178 185 199 197 191 188 188 181 167 161 163 165 166 166 171 173 175 171 188 178 202 229 273 259 243 252 219 234 237 240
223 168 151 187 192 204 210 222 194 165 167 201 230 195 182 180 195 196 199 192 187 185 178 168 169 171 169 169 175 175 170 169 183 181 192 186 204 238 229 233 227 244 250 243
213 169 183 199 201 216 204 207 206 189 212 187 251 267 160 177 189 195 196 191 186 181 180 172 171 174 174 171 170 169 167 170 176 190 205 217 234 259 287 269 245 247 250 249
185 182 197 205 204 227 183 161 198 214 239 251 222 276 136 168 194 193 189 187 185 178 178 173 171 171 170 168 168 164 165 167 174 195 197 221 241 252 263 258 246 251 234 244
179 179 220 203 170 177 143 155 174 222 241 246 253 274 258 156 190 178 175 175 174 170 169 165 163 164 166 166 166 165 166 174 179 190 199 222 246 260 269 278 285 262 236 239
189 188 183 183 163 168 196 206 211 217 223 233 170 256 293 80 132 163 164 164 164 165 166 163 164 166 168 169 170 168 171 179 182 190 202 220 236 237 238 259 264 282 276 254
196 190 183 197 213 196 212 233 248 260 256 200 177 248 99 112 132 152 155 153 157 164 166 165 165 165 167 168 169 169 173 180 184 191 205 222 233 239 243 259 291 279 290 300
207 191 166 191 220 225 207 234 265 262 265 270 213 217 192 163 174 167 157 156 159 161 162 163 162 162 163 164 166 168 167 174 182 189 195 206 217 247 269 263 266 272 288 283
225 203 171 165 179 195 261 227 229 251 257 258 232 230 240 184 184 173 167 164 160 160 162 161 160 161 160 160 159 161 163 163 171 185 202 173 183 199 228 264 302 319 312 315
228 219 183 186 210 197 190 211 234 248 262 266 258 220 91 200 190 181 174 168 165 166 162 159 157 156 157 156 156 159 159 160 167 172 173 182 174 174 175 194 315 356 335 338
220 231 210 199 191 260 231 226 222 237 234 252 274 261 90 128 164 181 174 166 167 166 158 156 155 156 158 157 157 158 161 159 159 157 159 165 171 170 171 151 135 114 39 343
205 223 213 197 187 196 216 220 230 241 239 243 252 214 112 123 141 157 166 161 163 164 160 157 157 159 162 160 160 161 164 157 156 156 163 165 173 164 166 163 141 117 118 78
234 231 240 237 218 192 203 206 217 233 237 234 245 264 157 162 162 154 156 164 165 165 165 166 160 162 164 161 159 163 162 159 162 165 165 164 171 170 170 163 148 133 129 114
237 225 231 248 240 225 219 216 214 231 252 257 248 255 272 223 193 172 161 159 163 167 172 173 168 164 164 163 164 165 162 158 160 166 164 165 164 157 163 158 144 135 134 125
238 234 221 227 226 232 235 227 223 228 239 248 255 259 297 286 170 172 168 165 170 174 173 169 169 166 167 167 167 162 161 159 162 169 170 167 157 149 153 150 137 131 128 111
217 223 225 224 213 230 233 228 226 226 232 244 251 267 286 235 193 186 177 172 172 173 168 169 169 171 170 167 164 163 154 148 153 161 165 157 152 150 154 153 145 142 139 125
222 229 230 228 213 234 224 207 226 228 232 247 258 276 277 263 212 173 165 169 169 166 164 168 172 172 170 163 155 155 149 154 158 158 161 156 161 158 156 154 151 148 143 137
225 224 231 230 226 227 205 199 216 224 225 250 262 277 285 230 176 162 124 157 165 166 160 162 171 171 164 160 155 153 157 159 160 159 161 161 160 161 161 161 160 155 153 145
196 223 233 228 238 232 202 176 218 233 220 198 262 272 243 204 225 160 109 143 144 147 149 153 158 157 154 154 157 155 157 158 161 160 155 152 151 160 165 167 166 155 154 146
187 204 224 228 234 234 167 159 201 225 211 50 299 278 233 221 306 75 140 127 128 140 142 144 146 145 143 147 153 154 156 162 161 153 148 147 147 151 151 153 150 147 148 136
210 206 212 225 233 219 104 180 225 350 12 345 314 295 246 202 92 112 119 123 129 132 141 145 141 136 138 145 148 151 155 152 148 148 147 143 142 143 139 151 149 148 154 147
228 246 237 237 245 57 106 83 23 347 325 323 318 326 242 190 154 136 127 123 126 127 136 143 140 139 140 144 147 150 149 149 150 148 140 138 136 131 132 143 146 151 158 157
197 255 244 239 220 223 223 325 337 334 328 316 309 293 220 195 174 156 142 136 133 127 135 146 153 150 147 148 147 145 146 155 156 152 146 145 143 141 133 140 139 141 144 153
227 219 225 229 231 233 226 285 312 318 315 313 303 265 209 191 186 179 169 159 154 146 156 168 167 158 154 149 147 149 151 159 155 153 155 152 147 139 133 114 73 89 80 39
232 242 242 244 246 260 268 291 298 299 305 305 292 263 206 193 180 180 176 167 177 167 176 179 168 156 151 151 152 150 155 159 159 160 162 161 154 150 150 140 120 63 62 75